| time (UTC) | temp F | wind direction | speed MPH | gust MPH | rain 1hr in | rain 24hr in | rain mn in | humidity % | barometer mb |
| 20260507191503 | 55 | 157 | 2.0 | 5.0 | 0.00 | 0.00 | 0.00 | 72 | 1014.4 |
| 20260507190004 | 55 | 191 | 3.0 | 8.0 | 0.00 | 0.00 | 0.00 | 70 | 1014.4 |
| 20260507184503 | 55 | 184 | 5.0 | 12.0 | 0.00 | 0.00 | 0.00 | 68 | 1014.2 |
| 20260507183023 | 56 | 185 | 5.0 | 11.0 | 0.00 | 0.00 | 0.00 | 67 | 1014.2 |
| 20260507181503 | 56 | 169 | 5.0 | 14.0 | 0.00 | 0.00 | 0.00 | 67 | 1014.2 |
| 20260507180002 | 56 | 207 | 5.0 | 8.0 | 0.00 | 0.00 | 0.00 | 68 | 1014.0 |
| 20260507174503 | 57 | 201 | 4.0 | 10.0 | 0.00 | 0.00 | 0.00 | 66 | 1013.9 |
| 20260507173003 | 58 | 209 | 4.0 | 13.0 | 0.00 | 0.00 | 0.00 | 63 | 1014.0 |
| 20260507171503 | 58 | 229 | 2.0 | 4.0 | 0.00 | 0.00 | 0.00 | 60 | 1014.0 |
| 20260507170003 | 58 | 190 | 2.0 | 4.0 | 0.00 | 0.00 | 0.00 | 60 | 1013.9 |
| 20260507164502 | 58 | 194 | 2.0 | 7.0 | 0.00 | 0.00 | 0.00 | 57 | 1014.0 |
| 20260507163003 | 59 | 190 | 3.0 | 10.0 | 0.00 | 0.00 | 0.00 | 55 | 1013.9 |
| 20260507161524 | 59 | 170 | 5.0 | 10.0 | 0.00 | 0.00 | 0.00 | 54 | 1014.0 |
| 20260507160003 | 60 | 180 | 6.0 | 13.0 | 0.00 | 0.00 | 0.00 | 53 | 1014.1 |
| 20260507154503 | 60 | 165 | 7.0 | 13.0 | 0.00 | 0.00 | 0.00 | 52 | 1014.0 |
| 20260507153023 | 61 | 180 | 6.0 | 14.0 | 0.00 | 0.00 | 0.00 | 51 | 1014.2 |
| 20260507151503 | 61 | 177 | 7.0 | 15.0 | 0.00 | 0.00 | 0.00 | 50 | 1014.2 |
| 20260507150003 | 60 | 167 | 8.0 | 15.0 | 0.00 | 0.00 | 0.00 | 50 | 1014.2 |
| 20260507144502 | 61 | 168 | 6.0 | 14.0 | 0.00 | 0.00 | 0.00 | 53 | 1014.3 |
| 20260507143003 | 60 | 169 | 7.0 | 13.0 | 0.00 | 0.00 | 0.00 | 54 | 1014.5 |
| 20260507141523 | 60 | 188 | 7.0 | 14.0 | 0.00 | 0.00 | 0.00 | 56 | 1014.7 |
| 20260507140024 | 61 | 169 | 6.0 | 13.0 | 0.00 | 0.00 | 0.00 | 56 | 1014.8 |
| 20260507134524 | 60 | 161 | 6.0 | 15.0 | 0.00 | 0.00 | 0.00 | 56 | 1014.9 |
| 20260507133002 | 61 | 170 | 6.0 | 15.0 | 0.00 | 0.00 | 0.00 | 55 | 1014.9 |
| 20260507131503 | 60 | 170 | 7.0 | 14.0 | 0.00 | 0.00 | 0.00 | 55 | 1015.0 |
| 20260507130002 | 59 | 192 | 7.0 | 15.0 | 0.00 | 0.00 | 0.00 | 58 | 1015.0 |
| 20260507124502 | 59 | 173 | 8.0 | 16.0 | 0.00 | 0.00 | 0.00 | 55 | 1015.1 |
| 20260507123003 | 59 | 157 | 6.0 | 13.0 | 0.00 | 0.00 | 0.00 | 61 | 1015.1 |
| 20260507121502 | 58 | 167 | 6.0 | 13.0 | 0.00 | 0.00 | 0.00 | 61 | 1015.2 |
| 20260507120002 | 58 | 149 | 8.0 | 13.0 | 0.00 | 0.00 | 0.00 | 63 | 1015.3 |
| 20260507114503 | 56 | 168 | 6.0 | 15.0 | 0.00 | 0.00 | 0.00 | 66 | 1015.4 |
| 20260507113024 | 56 | 174 | 6.0 | 12.0 | 0.00 | 0.00 | 0.00 | 69 | 1015.5 |
| 20260507111503 | 54 | 167 | 5.0 | 12.0 | 0.00 | 0.00 | 0.00 | 71 | 1015.6 |
| 20260507110002 | 54 | 168 | 5.0 | 12.0 | 0.00 | 0.00 | 0.00 | 74 | 1015.6 |
| 20260507104503 | 53 | 164 | 6.0 | 13.0 | 0.00 | 0.00 | 0.00 | 74 | 1015.8 |
| 20260507103002 | 52 | 148 | 8.0 | 13.0 | 0.00 | 0.00 | 0.00 | 75 | 1015.9 |
| 20260507101502 | 52 | 160 | 6.0 | 12.0 | 0.00 | 0.00 | 0.00 | 79 | 1015.8 |
| 20260507100003 | 51 | 148 | 6.0 | 11.0 | 0.00 | 0.00 | 0.00 | 80 | 1015.8 |
| 20260507094502 | 50 | 144 | 6.0 | 12.0 | 0.00 | 0.00 | 0.00 | 81 | 1015.7 |
| 20260507093003 | 50 | 150 | 7.0 | 12.0 | 0.00 | 0.00 | 0.00 | 82 | 1015.7 |
| 20260507091502 | 49 | 169 | 4.0 | 10.0 | 0.00 | 0.00 | 0.00 | 83 | 1015.8 |
| 20260507090002 | 49 | 151 | 4.0 | 10.0 | 0.00 | 0.00 | 0.00 | 84 | 1015.8 |
| 20260507084524 | 48 | 165 | 5.0 | 11.0 | 0.00 | 0.00 | 0.00 | 85 | 1015.9 |
| 20260507083003 | 47 | 155 | 4.0 | 10.0 | 0.00 | 0.00 | 0.00 | 85 | 1015.9 |
| 20260507081502 | 47 | 166 | 4.0 | 9.0 | 0.00 | 0.00 | 0.00 | 86 | 1015.8 |
| 20260507080003 | 46 | 153 | 5.0 | 10.0 | 0.00 | 0.00 | 0.00 | 86 | 1016.0 |
| 20260507074523 | 46 | 137 | 4.0 | 10.0 | 0.00 | 0.00 | 0.00 | 87 | 1016.0 |
| 20260507073003 | 46 | 153 | 5.0 | 11.0 | 0.00 | 0.00 | 0.00 | 87 | 1016.0 |
| 20260507071503 | 46 | 147 | 6.0 | 13.0 | 0.00 | 0.00 | 0.00 | 87 | 1015.9 |
| 20260507070004 | 45 | 139 | 7.0 | 14.0 | 0.00 | 0.00 | 0.00 | 87 | 1015.7 |
| 20260507064502 | 45 | 147 | 6.0 | 11.0 | 0.00 | 0.00 | 0.00 | 87 | 1015.7 |
| 20260507063003 | 45 | 146 | 7.0 | 15.0 | 0.00 | 0.00 | 0.00 | 87 | 1015.7 |
| 20260507061502 | 45 | 157 | 5.0 | 10.0 | 0.00 | 0.00 | 0.00 | 87 | 1015.7 |
| 20260507060003 | 45 | 157 | 5.0 | 10.0 | 0.00 | 0.00 | 0.00 | 87 | 1015.7 |
| 20260507054503 | 45 | 154 | 5.0 | 12.0 | 0.00 | 0.00 | 0.00 | 87 | 1015.5 |
| 20260507053003 | 44 | 152 | 6.0 | 11.0 | 0.00 | 0.00 | 0.00 | 87 | 1015.5 |
| 20260507051503 | 44 | 147 | 5.0 | 11.0 | 0.00 | 0.00 | 0.00 | 87 | 1015.4 |
| 20260507050024 | 44 | 139 | 4.0 | 10.0 | 0.00 | 0.00 | 0.00 | 87 | 1015.4 |
| 20260507044503 | 44 | 144 | 4.0 | 9.0 | 0.00 | 0.00 | 0.00 | 87 | 1015.4 |
| 20260507043003 | 44 | 140 | 3.0 | 8.0 | 0.00 | 0.00 | 0.00 | 87 | 1015.4 |
| 20260507041503 | 44 | 139 | 3.0 | 10.0 | 0.00 | 0.00 | 0.00 | 87 | 1015.4 |
| 20260507040003 | 44 | 134 | 4.0 | 10.0 | 0.00 | 0.00 | 0.00 | 87 | 1015.4 |
| 20260507034502 | 44 | 142 | 4.0 | 8.0 | 0.00 | 0.00 | 0.00 | 87 | 1015.4 |
| 20260507033024 | 44 | 145 | 4.0 | 8.0 | 0.00 | 0.00 | 0.00 | 87 | 1015.5 |
| 20260507031503 | 43 | 151 | 3.0 | 7.0 | 0.00 | 0.00 | 0.00 | 87 | 1015.4 |
| 20260507030003 | 43 | 162 | 3.0 | 6.0 | 0.00 | 0.00 | 0.00 | 86 | 1015.4 |
| 20260507024502 | 44 | 163 | 3.0 | 6.0 | 0.00 | 0.00 | 0.00 | 86 | 1015.5 |
| 20260507023003 | 44 | 165 | 4.0 | 9.0 | 0.00 | 0.00 | 0.00 | 86 | 1015.4 |
| 20260507021503 | 44 | 154 | 3.0 | 8.0 | 0.00 | 0.00 | 0.00 | 85 | 1015.4 |
| 20260507020003 | 45 | 134 | 3.0 | 7.0 | 0.00 | 0.00 | 0.00 | 85 | 1015.4 |
| 20260507014503 | 45 | 146 | 3.0 | 9.0 | 0.00 | 0.00 | 0.00 | 85 | 1015.5 |
| 20260507013002 | 45 | 137 | 5.0 | 10.0 | 0.00 | 0.00 | 0.00 | 85 | 1015.6 |
| 20260507011503 | 45 | 146 | 3.0 | 9.0 | 0.00 | 0.00 | 0.00 | 85 | 1015.9 |
| 20260507010003 | 45 | 132 | 3.0 | 9.0 | 0.00 | 0.00 | 0.00 | 84 | 1015.8 |
| 20260507004503 | 45 | 137 | 4.0 | 8.0 | 0.00 | 0.00 | 0.00 | 84 | 1015.7 |
| 20260507003003 | 45 | 141 | 4.0 | 10.0 | 0.00 | 0.00 | 0.00 | 84 | 1015.9 |
| 20260507001503 | 45 | 133 | 4.0 | 10.0 | 0.00 | 0.00 | 0.00 | 84 | 1015.9 |
| 20260507000003 | 46 | 135 | 5.0 | 9.0 | 0.00 | 0.00 | 0.00 | 84 | 1016.0 |
| 20260506234503 | 46 | 137 | 4.0 | 12.0 | 0.00 | 0.00 | 0.00 | 83 | 1015.9 |
| 20260506233003 | 46 | 128 | 5.0 | 12.0 | 0.00 | 0.00 | 0.00 | 83 | 1015.9 |
| 20260506231524 | 46 | 155 | 5.0 | 11.0 | 0.00 | 0.00 | 0.00 | 82 | 1015.8 |
| 20260506230003 | 47 | 148 | 4.0 | 12.0 | 0.00 | 0.00 | 0.00 | 82 | 1015.8 |
| 20260506224503 | 47 | 146 | 5.0 | 13.0 | 0.00 | 0.00 | 0.00 | 80 | 1015.7 |
| 20260506223003 | 48 | 139 | 5.0 | 11.0 | 0.00 | 0.00 | 0.00 | 80 | 1015.6 |
| 20260506221503 | 48 | 132 | 6.0 | 11.0 | 0.00 | 0.00 | 0.00 | 79 | 1015.5 |
| 20260506220003 | 48 | 125 | 5.0 | 11.0 | 0.00 | 0.00 | 0.00 | 78 | 1015.5 |
| 20260506214503 | 48 | 127 | 5.0 | 10.0 | 0.00 | 0.00 | 0.00 | 77 | 1015.4 |
| 20260506213003 | 48 | 120 | 4.0 | 10.0 | 0.00 | 0.00 | 0.00 | 76 | 1015.3 |
| 20260506211503 | 48 | 132 | 3.0 | 7.0 | 0.00 | 0.00 | 0.00 | 76 | 1015.3 |
| 20260506210024 | 48 | 128 | 4.0 | 9.0 | 0.00 | 0.00 | 0.00 | 76 | 1015.3 |
| 20260506204524 | 49 | 135 | 3.0 | 8.0 | 0.00 | 0.00 | 0.00 | 75 | 1015.2 |
| 20260506203003 | 49 | 133 | 4.0 | 8.0 | 0.00 | 0.00 | 0.00 | 75 | 1015.2 |
| 20260506201503 | 50 | 144 | 4.0 | 9.0 | 0.00 | 0.00 | 0.00 | 74 | 1015.0 |
| 20260506200003 | 50 | 131 | 5.0 | 10.0 | 0.00 | 0.00 | 0.00 | 72 | 1014.7 |
| 20260506194503 | 51 | 135 | 4.0 | 10.0 | 0.00 | 0.00 | 0.00 | 70 | 1014.7 |
| 20260506193024 | 52 | 134 | 4.0 | 10.0 | 0.00 | 0.00 | 0.00 | 66 | 1014.6 |